Kap Morris Jesup

KL  EN  DA
ASIAQ
Weather Now GREENLAND SURVEY
Updated [WGT/WGST] Temperature [°C] Wind [m/s] Air pressure [hPa] Relative humidity [%] Precipitation [mm]
Present Wind chill Speed Max
19.10 00:00-15,6-23,03,6 ⇒4,6101682n/a
18.10 23:00-15,8-23,23,6 ⇒4,6101683n/a
18.10 22:00-15,8-21,92,6 ⇘3,1101581n/a
18.10 21:00-15,7-21,82,6 ⇒3,6101582n/a
18.10 20:00-15,5-20,72,1 ⇒3,6101582n/a
18.10 19:00-15,6-21,72,6 ⇗3,1101482n/a
18.10 18:00-15,8-21,02,1 ⇒2,6101482n/a
18.10 17:00-15,6-20,82,1 ⇒2,6101483n/a
18.10 16:00-15,7-22,53,1 ⇘3,6101484n/a
18.10 15:00-15,9-22,02,6 ⇒3,6101484n/a
18.10 14:00-16,0-23,53,6 ⇘4,1101485n/a
18.10 13:00-15,9-22,73,1 ⇘4,1101485n/a
18.10 12:00-16,0-21,32,1 ⇘3,1101385n/a
18.10 11:00-15,9-22,02,6 ⇒3,1101485n/a
18.10 10:00-16,0-22,93,1 ⇘4,1101385n/a
18.10 09:00-16,0-21,32,1 ⇘2,6101485n/a
18.10 08:00-15,5-20,72,1 ⇒2,6101385n/a
18.10 07:00-15,1-21,83,1 ⇒4,1101485n/a
18.10 06:00-14,9-21,53,1 ⇘4,1101386n/a
18.10 05:00-14,9-22,74,1 ⇒5,1101386n/a
18.10 04:00-14,5-23,65,7 ⇒7,2101385n/a
18.10 03:00-15,6-25,46,2 ⇒7,7101286n/a
18.10 02:00-16,0-25,96,2 ⇒7,7101286n/a
18.10 01:00-16,2-26,26,2 ⇒7,2101287n/a
18.10 00:00-16,2-26,26,2 ⇒7,2101286n/a
Position: (83.6561111111,-33.3738888888)

[Back]